AKDT,Max TemperatureF,Mean TemperatureF,Min TemperatureF,Max Dew PointF,MeanDew PointF,Min DewpointF,Max Humidity, Mean Humidity, Min Humidity, Max Sea Level PressureIn, Mean Sea Level PressureIn, Min Sea Level PressureIn, Max VisibilityMiles, Mean VisibilityMiles, Min VisibilityMiles, Max Wind SpeedMPH, Mean Wind SpeedMPH, Max Gust SpeedMPH,PrecipitationIn, CloudCover, Events, WindDirDegrees
2013-8-1,66,62,57,55,54,52,89,80,68,30.11,30.07,30.04,10,10,10,18,11,,0.00,5,,323
2013-8-2,68,62,57,55,53,51,87,76,65,30.13,30.08,30.06,10,10,8,17,10,,0.00,4,,315
2013-8-3,62,58,55,55,53,51,93,86,75,30.19,30.15,30.11,10,8,2,8,5,,0.06,8,Rain,288
2013-8-4,60,58,57,58,56,54,97,94,89,30.10,30.06,30.05,10,4,2,10,4,,0.73,8,Fog-Rain,320
2013-8-5,66,60,55,57,56,55,100,92,75,30.10,30.06,30.04,10,6,2,13,5,,0.15,8,Rain,292
2013-8-6,68,60,55,56,54,52,93,81,63,30.09,30.05,30.00,10,10,10,9,4,,0.00,3,,274
2013-8-7,64,60,55,57,55,53,93,86,75,29.99,29.97,29.95,10,9,1,13,4,,0.00,7,Rain,279
2013-8-8,61,59,57,59,57,55,100,94,88,30.08,29.99,29.93,10,6,1,12,3,,0.31,8,Rain,241
2013-8-9,66,60,55,56,54,51,96,83,65,30.12,30.10,30.08,10,10,4,15,8,,0.03,6,Rain,316
2013-8-10,66,58,51,55,53,49,94,79,66,30.10,30.08,30.06,10,10,9,18,5,,0.00,0,,294
2013-8-11,70,60,52,58,54,50,93,80,67,30.07,30.03,29.99,10,10,10,12,3,,0.00,0,,267
2013-8-12,66,60,55,58,56,53,96,88,75,30.02,30.00,29.99,10,7,1,9,3,,0.00,2,Fog,242
2013-8-13,61,58,55,56,54,54,97,88,80,30.07,30.04,30.01,10,7,0,9,3,,0.00,8,Fog,234
2013-8-14,71,64,57,60,57,55,96,84,68,30.02,29.88,29.80,10,10,10,9,3,,0.00,4,,288
2013-8-15,66,60,57,58,56,55,97,90,78,29.89,29.85,29.81,10,9,2,9,3,,0.05,6,Rain,260
2013-8-16,64,60,57,58,57,55,100,92,80,29.89,29.84,29.78,10,8,3,9,3,,0.31,7,Rain,340
2013-8-17,66,60,55,59,56,53,96,88,75,29.78,29.65,29.57,10,8,1,14,4,21,0.57,7,Rain,155
2013-8-18,61,57,54,54,52,49,93,83,69,29.72,29.69,29.65,10,9,2,15,9,,0.18,8,Rain,132
2013-8-19,63,56,50,55,51,48,93,84,75,29.99,29.85,29.72,10,10,10,13,4,,0.00,6,Rain,174
2013-8-20,64,58,53,57,41,15,100,64,16,30.14,30.08,29.99,10,10,10,14,5,,0.00,6,,130
2013-8-21,64,59,55,56,54,53,93,82,72,30.10,29.97,29.86,10,10,8,15,3,,0.00,8,Rain,332
2013-8-22,66,60,54,56,53,50,90,79,60,29.89,29.87,29.86,10,10,10,13,3,,0.00,5,,296
2013-8-23,64,57,51,55,52,49,93,81,70,29.87,29.77,29.65,10,10,10,8,4,,0.00,5,,171
2013-8-24,62,60,57,56,54,51,90,82,70,29.65,29.61,29.58,10,10,6,15,8,,0.03,8,Rain,169
2013-8-25,66,64,61,56,52,50,83,66,60,29.67,29.62,29.57,10,10,10,15,12,26,0.02,8,Rain,115
2013-8-26,70,64,59,55,52,49,83,64,50,29.72,29.68,29.64,10,10,10,16,11,20,0.01,8,Rain,96
2013-8-27,66,60,55,55,53,48,93,76,52,29.86,29.77,29.64,10,10,3,12,5,22,0.03,8,Rain,188
2013-8-28,66,58,51,57,53,49,93,83,70,29.88,29.87,29.84,10,10,10,7,2,,0.00,1,,169
2013-8-29,70,62,53,56,53,49,90,74,53,29.83,29.75,29.71,10,10,10,8,3,,0.00,6,Rain,337
2013-8-30,63,61,60,60,58,55,93,90,78,30.00,29.89,29.75,10,8,2,10,4,,0.35,8,Rain,48
2013-8-31,61,60,59,58,58,57,94,92,88,30.03,30.00,29.94,10,6,1,7,2,,0.58,8,Rain,148